KG6SIB Weather Reports


time (UTC)temp
C
wind
direction
speed
KPH
gust
KPH
rain 1hr
cm
rain 24hr
cm
rain mn
cm
humidity
%
barometer
mb
20260504045121 8 252 8.0 19.3 0.00 0.00 0.00 88 1014.5
20260504044620 8 203 6.4 19.3 0.00 0.00 0.00 88 1014.6
20260504044120 8 225 1.6 17.7 0.00 0.00 0.00 87 1014.3
20260504043621 8 219 9.7 17.7 0.00 0.00 0.00 87 1014.2
20260504043121 8 244 4.8 14.5 0.00 0.00 0.00 87 1014.3
20260504042621 8 219 9.7 14.5 0.00 0.00 0.00 87 1014.4
20260504042121 8 210 6.4 8.0 0.00 0.00 0.00 87 1014.2
20260504041620 9 229 4.8 9.7 0.00 0.00 0.00 87 1014.2
20260504041120 9 219 6.4 9.7 0.00 0.00 0.00 87 1014.2
20260504040620 8 240 3.2 9.7 0.00 0.00 0.00 87 1014.0
20260504040150 8 232 3.2 11.3 0.00 0.00 0.00 87 1014.1
20260504035120 8 232 9.7 14.5 0.00 0.00 0.00 86 1013.8
20260504034620 9 238 4.8 12.9 0.00 0.00 0.00 86 1013.6
20260504034150 9 268 11.3 14.5 0.00 0.00 0.00 86 1014.0
20260504033650 9 262 3.2 16.1 0.00 0.00 0.00 86 1013.7
20260504032650 9 232 8.0 22.5 0.00 0.00 0.00 85 1013.6
20260504032150 9 223 1.6 22.5 0.00 0.00 0.00 85 1013.6
20260504031650 9 242 4.8 16.1 0.00 0.00 0.00 86 1013.5
20260504031149 9 224 4.8 16.1 0.00 0.00 0.00 86 1013.4
20260504030650 9 218 6.4 14.5 0.00 0.00 0.00 86 1013.3
20260504030150 9 235 6.4 17.7 0.00 0.00 0.00 86 1013.2
20260504025649 9 232 8.0 17.7 0.00 0.00 0.00 85 1012.5
20260504025150 10 234 0.0 16.1 0.00 0.00 0.00 85 1012.6
20260504024649 10 255 3.2 16.1 0.00 0.00 0.00 84 1012.7
20260504024149 10 237 8.0 17.7 0.00 0.00 0.00 84 1012.8
20260504023149 10 234 4.8 16.1 0.00 0.00 0.00 84 1012.7
20260504022649 10 245 12.9 20.9 0.00 0.00 0.00 83 1012.9
20260504022149 10 222 8.0 20.9 0.00 0.00 0.00 83 1013.0
20260504021649 10 240 6.4 19.3 0.00 0.00 0.00 82 1012.8
20260504021149 10 231 8.0 19.3 0.00 0.00 0.00 82 1012.6
20260504020649 10 197 14.5 17.7 0.00 0.00 0.00 81 1012.6
20260504020149 11 227 9.7 17.7 0.00 0.00 0.00 80 1012.7
20260504015649 11 243 9.7 20.9 0.00 0.00 0.00 79 1011.8
20260504015149 11 229 9.7 24.1 0.00 0.00 0.00 78 1011.9
20260504014149 11 212 8.0 24.1 0.00 0.00 0.00 76 1012.2
20260504013649 12 247 16.1 22.5 0.00 0.00 0.00 76 1012.0
20260504012648 12 227 11.3 20.9 0.00 0.00 0.00 76 1011.7
20260504012149 12 265 16.1 22.5 0.00 0.00 0.00 76 1011.6
20260504011648 12 229 8.0 22.5 0.00 0.00 0.00 76 1011.8
20260504011148 12 217 8.0 20.9 0.00 0.00 0.00 75 1011.7
20260504010648 12 236 9.7 20.9 0.00 0.00 0.00 75 1011.7
20260504010148 13 253 17.7 17.7 0.00 0.00 0.00 74 1011.6
20260504005648 13 230 9.7 17.7 0.00 0.00 0.00 74 1011.0
20260504004648 13 234 14.5 16.1 0.00 0.00 0.00 73 1011.0
20260504004148 13 227 14.5 16.1 0.00 0.00 0.00 73 1010.8
20260504003148 14 256 8.0 19.3 0.00 0.00 0.00 73 1011.2
20260504002647 14 229 9.7 19.3 0.00 0.00 0.00 72 1011.1
20260504002147 14 257 3.2 16.1 0.00 0.00 0.00 72 1010.9
20260504001647 14 214 6.4 14.5 0.00 0.00 0.00 72 1011.0
20260504001148 14 215 8.0 14.5 0.00 0.00 0.00 72 1011.1
20260504000647 14 246 6.4 14.5 0.00 0.00 0.00 72 1011.0
20260503235647 15 263 6.4 12.9 0.00 0.00 0.00 72 1011.6
20260503235147 14 255 12.9 12.9 0.00 0.00 0.00 72 1011.2
20260503234147 15 236 6.4 14.5 0.00 0.00 0.00 72 1011.3
20260503233147 15 218 11.3 14.5 0.00 0.00 0.00 71 1011.4
20260503232647 15 244 11.3 14.5 0.00 0.00 0.00 71 1011.6
20260503232147 15 249 1.6 12.9 0.00 0.00 0.00 71 1011.7
20260503231647 15 232 1.6 14.5 0.00 0.00 0.00 71 1011.6
20260503231147 15 244 0.0 17.7 0.00 0.00 0.00 70 1011.5
20260503230646 16 240 8.0 20.9 0.00 0.00 0.00 68 1011.8
20260503230146 16 223 6.4 20.9 0.00 0.00 0.00 67 1011.9
20260503225647 16 238 4.8 19.3 0.00 0.00 0.00 69 1012.3
20260503225146 16 220 8.0 17.7 0.00 0.00 0.00 69 1012.2
20260503224647 16 238 8.0 17.7 0.00 0.00 0.00 68 1012.2
20260503224146 16 251 6.4 14.5 0.00 0.00 0.00 67 1012.4
20260503223646 16 229 1.6 17.7 0.00 0.00 0.00 67 1012.5
20260503223146 17 242 6.4 19.3 0.00 0.00 0.00 66 1012.6
20260503222646 17 240 16.1 20.9 0.00 0.00 0.00 64 1012.6
20260503221646 17 231 16.1 19.3 0.00 0.00 0.00 66 1012.6
20260503221146 17 196 1.6 19.3 0.00 0.00 0.00 65 1012.7
20260503220646 17 205 11.3 24.1 0.00 0.00 0.00 66 1012.6
20260503220146 17 223 17.7 24.1 0.00 0.00 0.00 65 1012.6
20260503215646 17 225 3.2 20.9 0.00 0.00 0.00 64 1013.0
20260503214646 17 261 9.7 17.7 0.00 0.00 0.00 65 1012.9
20260503214146 17 257 8.0 17.7 0.00 0.00 0.00 69 1012.8
20260503213145 16 235 4.8 14.5 0.00 0.00 0.00 71 1012.7
20260503212145 15 247 11.3 20.9 0.00 0.00 0.00 72 1012.8
20260503211645 16 230 12.9 20.9 0.00 0.00 0.00 72 1012.7
20260503211145 16 238 6.4 11.3 0.00 0.00 0.00 71 1012.7
20260503210645 16 245 11.3 12.9 0.00 0.00 0.00 72 1012.7
20260503210145 16 228 4.8 12.9 0.00 0.00 0.00 71 1012.6
20260503205645 15 234 3.2 12.9 0.00 0.00 0.00 73 1012.4
20260503205145 15 234 0.0 11.3 0.00 0.00 0.00 74 1012.4
20260503204645 15 236 4.8 8.0 0.00 0.00 0.00 74 1012.4
20260503204145 15 261 0.0 14.5 0.00 0.00 0.00 75 1012.4
20260503203645 15 236 1.6 14.5 0.00 0.00 0.00 75 1012.5
20260503203145 15 223 4.8 12.9 0.00 0.00 0.00 75 1012.5
20260503202645 15 223 3.2 12.9 0.00 0.00 0.00 75 1012.5
20260503202145 15 229 4.8 14.5 0.00 0.00 0.00 75 1012.6
20260503201645 15 244 3.2 16.1 0.00 0.00 0.00 75 1012.7
20260503201145 15 233 9.7 17.7 0.00 0.00 0.00 75 1012.8
20260503200645 15 228 11.3 17.7 0.00 0.00 0.00 74 1012.7
20260503200145 16 241 12.9 14.5 0.00 0.00 0.00 74 1012.9
20260503195645 16 282 0.0 16.1 0.00 0.00 0.00 74 1012.9
20260503195145 16 217 1.6 16.1 0.00 0.00 0.00 74 1012.8
20260503194644 16 235 8.0 11.3 0.00 0.00 0.00 73 1012.7
20260503194145 16 302 3.2 9.7 0.00 0.00 0.00 72 1012.8
20260503193644 16 220 4.8 14.5 0.00 0.00 0.00 71 1013.0
20260503193144 16 234 6.4 14.5 0.00 0.00 0.00 71 1013.0
20260503192644 17 244 0.0 14.5 0.00 0.00 0.00 71 1013.1
20260503192144 17 293 4.8 19.3 0.00 0.00 0.00 69 1013.2
20260503191644 18 217 6.4 19.3 0.00 0.00 0.00 67 1013.3
20260503191144 19 232 6.4 19.3 0.00 0.00 0.00 65 1013.5
20260503190644 20 240 14.5 22.5 0.00 0.00 0.00 65 1013.6
20260503190144 20 219 8.0 22.5 0.00 0.00 0.00 64 1013.6
20260503185644 20 227 12.9 17.7 0.00 0.00 0.00 63 1013.5
20260503185144 20 207 4.8 17.7 0.00 0.00 0.00 62 1013.7
20260503184645 20 196 9.7 17.7 0.00 0.00 0.00 62 1013.6
20260503184144 20 226 6.4 16.1 0.00 0.00 0.00 64 1013.4
20260503183644 19 227 6.4 16.1 0.00 0.00 0.00 66 1013.4
20260503183144 18 232 8.0 16.1 0.00 0.00 0.00 65 1013.2
20260503182644 18 246 12.9 14.5 0.00 0.00 0.00 65 1013.3
20260503182144 18 228 6.4 14.5 0.00 0.00 0.00 66 1013.4
20260503181144 18 217 1.6 11.3 0.00 0.00 0.00 67 1013.4
20260503180644 18 238 6.4 11.3 0.00 0.00 0.00 68 1013.4
20260503180144 17 236 6.4 12.9 0.00 0.00 0.00 68 1013.3
20260503175643 17 222 6.4 16.1 0.00 0.00 0.00 69 1013.6
20260503175143 17 189 4.8 16.1 0.00 0.00 0.00 70 1013.6
20260503174643 17 239 3.2 14.5 0.00 0.00 0.00 71 1013.4
20260503174143 17 215 4.8 16.1 0.00 0.00 0.00 71 1013.4
20260503173643 16 259 12.9 17.7 0.00 0.00 0.00 71 1013.3
20260503173143 17 234 9.7 17.7 0.00 0.00 0.00 71 1013.3
20260503172643 17 247 11.3 16.1 0.00 0.00 0.00 71 1013.3
20260503172143 17 229 3.2 16.1 0.00 0.00 0.00 71 1013.2
20260503171643 17 251 3.2 16.1 0.00 0.00 0.00 71 1013.3
20260503171143 17 208 9.7 16.1 0.00 0.00 0.00 69 1013.2
20260503170643 17 232 9.7 16.1 0.00 0.00 0.00 69 1013.2
20260503170143 17 240 4.8 16.1 0.00 0.00 0.00 70 1013.1
20260503160142 15 228 6.4 16.1 0.00 0.00 0.00 75 1012.7
20260503150641 11 341 0.0 3.2 0.00 0.00 0.00 85 1012.2
20260503150141 11 340 0.0 4.8 0.00 0.00 0.00 87 1012.2
20260503140141 8 49 0.0 0.0 0.00 0.00 0.00 89 1011.6
20260503131141 6 23 4.8 6.4 0.00 0.00 0.00 85 1011.2
20260503130641 5 69 3.2 4.8 0.00 0.00 0.00 83 1010.9
20260503130141 5 69 0.0 3.2 0.00 0.00 0.00 82 1010.7
20260503120140 7 78 4.8 4.8 0.00 0.00 0.00 74 1011.0
20260503110639 10 193 3.2 6.4 0.00 0.00 0.00 61 1012.7
20260503110139 10 298 3.2 4.8 0.00 0.00 0.00 55 1012.6
20260503100139 11 225 3.2 4.8 0.00 0.00 0.00 54 1013.1
20260503090138 10 40 6.4 9.7 0.00 0.00 0.00 50 1013.3
20260503081137 11 142 0.0 9.7 0.00 0.00 0.00 51 1014.5
20260503080637 11 40 0.0 9.7 0.00 0.00 0.00 48 1014.6
20260503080137 11 46 8.0 9.7 0.00 0.00 0.00 47 1014.3
20260503072637 11 63 4.8 11.3 0.00 0.00 0.00 47 1014.3
20260503072136 11 52 8.0 9.7 0.00 0.00 0.00 47 1014.3
20260503071637 11 38 4.8 9.7 0.00 0.00 0.00 47 1014.4
20260503071136 11 54 6.4 9.7 0.00 0.00 0.00 47 1014.4
20260503054636 12 50 6.4 11.3 0.00 0.00 0.00 46 1014.8
20260503054136 12 55 6.4 11.3 0.00 0.00 0.00 46 1014.8
20260503053635 12 69 6.4 11.3 0.00 0.00 0.00 45 1015.1
20260503053135 12 74 3.2 11.3 0.00 0.00 0.00 45 1015.0
20260503052635 12 56 6.4 11.3 0.00 0.00 0.00 45 1015.0
20260503052135 12 58 4.8 11.3 0.00 0.00 0.00 45 1014.8
20260503051135 12 80 4.8 11.3 0.00 0.00 0.00 45 1014.7
20260503050636 12 81 8.0 11.3 0.00 0.00 0.00 45 1014.8
20260503050136 12 86 4.8 11.3 0.00 0.00 0.00 45 1014.9
20260503045636 12 90 6.4 11.3 0.00 0.00 0.00 46 1014.8